sat.trackr.live / text

‹ back to catalog

STARLINK-36712

NORAD 67700 · 2026-025H

PAYLOAD ACTIVE UNKNOWN

§ Identity

Operator
Country
US
Launch date
2026-02-07
Launch site
AFWTR
Launch vehicle
Mass (kg)
RCS (m²)

Purposes: comms

External: N2YO · Heavens-Above · Gunter

§ Orbital elements

Epoch: 2026-09-19T05:57:59.103072Z

Period
93.91 min
Inclination
97.2845°
Eccentricity
0.0000913
Mean motion
15.33454603 rev/d
Perigee alt
464.9 km
Apogee alt
466.1 km
Semi-major
6,843.7 km
B*
5.1944e-4
RAAN
12.1598°
Arg perigee
95.9347°
Mean anomaly
264.2000°
Rev number
3,567

§ Raw data

STARLINK-367121 67700U 26025H   26262.24860073  .00016737  00000+0  51944-3 0  99922 67700  97.2845  12.1598 0000913  95.9347 264.2000 15.33454603 35672

JSON: /api/v1/satellites/67700 · /tle

For live sub-satellite position, see the globe view (requires WebGL).

§ Visibility from observer

Set your observer location to see the next 7 days of passes ≥ 10°. The values pass through the URL so the page stays shareable.

No JS? Fill the form by hand. The geolocation button needs JavaScript.